Location: Api�s
(42.2252°N, 0.4042°W)
Time: 07:59:41
(UTC+00:00)

Daily predictions for brighter satellites

Satellite Brightness Start Highest point End
(mag) Time Altitude Azimuth Time Altitude Azimuth Time Altitude Azimuth
SMAP 3.3 17:00:53 10° SE 17:05:21 49° ENE 17:09:51 10° N
Cosmos 724 4.4 17:00:10 10° NNW 17:05:54 53° NE 17:11:31 10° SE
PSLV R/B 4.0 17:02:01 10° NNE 17:06:16 81° ESE 17:10:27 10° S
Cosmos 1980 Rocket 2.7 17:01:23 10° S 17:06:40 42° ESE 17:12:00 10° NE
SL-16 R/B 3.9 17:06:52 10° ESE 17:09:06 12° E 17:11:19 10° ENE
ERBS 4.4 17:07:08 10° WNW 17:09:36 19° NNW 17:12:05 10° NNE
GPS 2-04 Rocket1 4.2 17:07:36 10° SW 17:10:32 24° S 17:13:25 10° ESE
ASTEX 1 4.3 17:06:36 10° N 17:11:29 54° W 17:16:18 10° SSW
Cosmos 1862 3.6 17:08:47 10° N 17:12:39 45° ENE 17:16:29 10° SSE
Lacrosse 4 Rocket 2.3 17:10:07 10° SW 17:14:02 46° WNW 17:17:57 10° NNE
Cosmos 2322 Rocket 3.9 17:13:09 10° ESE 17:14:55 11° E 17:16:41 10° ENE
Cosmos 2297 Rocket 3.3 17:10:20 10° NW 17:15:48 51° WSW 17:21:14 10° S
Cosmos 2227 Rocket 3.1 17:11:18 10° NNW 17:16:49 54° WSW 17:22:17 10° S
NOSS 2-3 (E) 3.9 17:14:19 10° SW 17:18:38 75° NW 17:23:39 10° NNE
Cosmos 923 Rocket 4.1 17:14:22 10° SSW 17:19:35 82° WNW 17:24:49 10° NNE
SeaSat 1 3.5 17:17:25 10° ESE 17:21:21 25° NE 17:25:18 10° N
Cosmos 1624 Rocket 4.4 17:19:50 10° N 17:24:54 41° ENE 17:29:55 10° SE
BREEZE-M DEB (TANK) 4.0 17:15:41 10° W 17:24:58 40° NNW 17:27:57 12° NE
Cosmos 2056 Rocket 3.9 17:21:31 10° N 17:26:23 40° ENE 17:31:16 10° SE
NOSS 3-1 (A) 4.0 17:21:57 10° SW 17:27:21 52° NW 17:33:36 10° NNE
NOSS 2-3 (D) 4.0 17:24:08 10° SW 17:28:25 66° NW 17:33:26 10° NNE
Cosmos 2263 Rocket 3.1 17:24:24 10° N 17:28:58 25° NE 17:33:30 10° ESE
ATLAS 5 CENTAUR R/B 4.3 17:24:55 10° NW 17:30:21 35° WSW 17:36:22 10° S
H-2A R/B 2.6 17:29:12 10° SSE 17:33:01 83° ENE 17:36:49 10° N
YAOGAN 6 3.6 17:30:16 10° ESE 17:33:03 23° ENE 17:35:50 10° NNE
Feng Yun 1-1 Rocket 4.4 17:32:05 10° S 17:37:39 79° WSW 17:43:07 10° NNW
Cosmos 1697 Rocket 3.4 17:37:59 10° SW 17:43:31 54° WNW 17:49:04 10° NNE
Envisat 3.0 17:42:40 10° SSE 17:47:40 63° ENE 17:52:41 10° N
CENTAUR R/B 4.4 17:42:35 10° NNW 17:47:54 20° NNE 17:51:27 15° NE
Cosmos 1400 Rocket 4.0 17:45:54 10° SE 17:49:06 22° E 17:49:31 22° E
Cosmos 1151 Rocket 3.0 17:45:07 10° S 17:49:28 82° E 17:53:53 10° N
COBE Rocket 3.8 17:45:34 10° N 17:50:19 83° WNW 17:54:57 10° SSW
YAOGAN 3 4.5 17:46:07 10° SSE 17:50:28 81° ENE 17:54:52 10° N
Okean-O 2.6 17:48:54 10° SSE 17:53:19 89° E 17:57:47 10° NNW
Cosmos 1633 Rocket 3.5 17:49:32 10° NNW 17:53:55 65° W 17:58:17 10° S
Cosmos 2034 Rocket 4.0 17:48:51 10° N 17:55:16 88° E 18:01:39 10° S
Cosmos 158 Rocket 4.0 17:50:51 10° SSW 17:56:09 89° E 18:01:21 10° NNE
GENESIS II 4.2 17:56:41 10° SSW 18:00:42 86° ESE 18:03:14 23° NE
FengYun 1-2 T 4.1 17:58:32 10° SSE 18:03:59 67° ENE 18:09:25 10° N
Cosmos 1420 Rocket 4.3 18:00:34 10° N 18:05:28 41° ENE 18:10:02 12° SE
Cosmos 1328 Rocket 4.1 18:01:11 10° SSW 18:05:33 61° W 18:09:55 10° N
ATLAS 2AS CENTAUR R/B 4.2 18:04:42 10° SSE 18:09:49 20° ESE 18:09:49 20° ESE
Cosmos 1634 Rocket 4.1 18:04:34 10° N 18:10:34 50° ENE 18:16:32 10° SSE
ATLAS 3B R/B 4.2 18:07:56 10° NNW 18:11:53 16° NNE 18:12:56 15° NE
Cosmos 1933 Rocket 3.4 18:07:42 10° N 18:12:04 77° E 18:16:25 10° SSE
Cosmos 2228 Rocket 3.1 18:07:41 10° S 18:12:05 61° E 18:16:06 13° NNE
Cosmos 1515 Rocket 3.5 18:08:00 10° S 18:12:23 84° W 18:16:46 10° N
Geosat 3.9 18:10:04 14° NNE 18:14:27 90° WNW 18:19:29 10° SSW
Cosmos 1452 Rocket 3.9 18:09:47 10° N 18:14:46 40° ENE 18:16:37 30° ESE
COSMO-SKYMED 1 2.5 18:11:31 10° NNE 18:15:53 89° E 18:20:14 10° SSW
ISS -2.7 18:13:21 10° SSW 18:16:05 32° SSE 18:16:05 32° SSE
USA 238 DEB 4.5 18:10:05 10° NNW 18:16:31 34° NE 18:18:44 29° ENE
USA 238 4.5 18:10:11 10° NNW 18:16:37 34° NE 18:18:47 29° ENE
COSMOS 2455 3.4 18:13:23 10° S 18:18:45 35° ESE 18:19:46 33° E
USA 116 4.3 18:14:06 12° NNE 18:18:45 64° ESE 18:23:59 10° S
CSL-04 Debris 4.1 18:16:23 10° SSE 18:21:49 67° ENE 18:27:16 10° N
Cosmos 2227 4.1 18:17:25 10° NNW 18:23:13 86° ENE 18:28:57 10° SSE
Tsikada Rocket 4.2 18:17:01 10° SSW 18:23:24 78° W 18:29:51 10° N
NOAA 11 4.3 18:18:55 10° SE 18:24:06 48° ENE 18:29:18 10° N
Cosmos 2279 Rocket 4.3 18:20:27 10° N 18:26:19 41° ENE 18:32:09 10° SE
Cosmos 1606 2.8 18:26:15 10° SSW 18:30:00 71° W 18:32:01 26° N
Ariane Rocket 4.2 18:32:53 25° NNE 18:32:53 25° NNE 18:35:22 10° N
SL-8 R/B 3.8 18:26:00 10° WSW 18:30:49 70° NNW 18:32:05 48° NE
CSL-04 Rocket 3.5 18:25:58 10° SSE 18:31:18 79° ENE 18:36:36 10° NNW
YAOGAN 1 2.5 18:32:16 10° SSE 18:36:35 88° WSW 18:40:57 10° NNW
CZ-4 R/B 1.8 18:33:12 10° S 18:37:17 64° WSW 18:41:19 10° NNW
Meteor 1-26 Rocket 4.2 18:32:35 10° S 18:38:34 84° E 18:44:31 10° N
Cosmos 1048 Rocket 4.3 18:38:42 10° S 18:43:01 47° SE 18:43:01 47° SE
GEOS 3 Rocket 4.2 18:42:00 26° NNE 18:44:49 54° NW 18:49:57 10° WSW
Cosmos 2360 Rocket 3.5 18:39:50 10° SSE 18:42:21 24° SSE 18:42:21 24° SSE
GPS 2-04 Rocket1 4.3 18:46:40 10° WSW 18:48:51 23° SSW 18:48:51 23° SSW
Cosmos 1980 Rocket 3.9 18:45:49 10° WSW 18:50:47 30° NW 18:55:48 10° N
DELTA 2 R/B (1) 3.7 18:45:51 10° WSW 18:51:20 59° SSE 18:51:54 56° SE
SL-16 R/B 2.1 18:46:39 10° SSW 18:52:19 88° WNW 18:54:04 47° NNE
USA 215 4.1 18:51:53 31° NNE 18:52:32 31° NNE 18:58:07 10° NW
Meteor 1-20 Rocket 4.5 18:47:46 10° NNW 18:53:36 72° W 18:59:18 10° S
Cosmos 2322 Rocket 2.0 18:52:26 10° SSW 18:58:03 89° ESE 18:58:55 65° NNE
SeaSat 1 3.2 18:53:48 10° S 18:58:34 51° WSW 19:03:23 10° NW
Cosmos 468 4.4 18:58:08 10° SSW 19:03:08 79° S 19:03:08 79° S
NOSS 3-2 (C) 4.4 18:59:41 10° NNW 19:06:15 42° NE 19:06:15 42° NE
Cosmos 2263 Rocket 2.9 19:07:47 10° NW 19:13:10 51° WSW 19:17:01 19° S
CENTAUR R/B 3.7 19:32:52 10° NNW 19:38:39 43° N 19:38:39 43° N
ATLAS 2AS CENTAUR R/B 3.6 19:52:00 10° SSW 19:57:20 48° SSW 19:57:20 48° SSW
ATLAS 3B R/B 4.3 19:57:46 10° NNW 20:00:13 23° NNW 20:00:13 23° NNW
COSMOS 2455 4.2 19:58:54 10° WSW 20:02:58 35° W 20:02:58 35° W
USA 238 DEB 4.5 20:00:48 10° NW 20:06:13 51° WNW 20:06:13 51° WNW
USA 238 4.5 20:00:54 10° NW 20:06:16 50° WNW 20:06:16 50° WNW
NOSS 3-2 (A) 4.5 20:03:14 10° NW 20:09:12 57° WNW 20:09:12 57° WNW
